SCP
0 0 0 0 0 0 0 0 0 0 0 0 0 0 0 0 0 0 0 0 0 0 0 0 0 0 0 0 0 0 0 0 0 0 0 0 0 0 0 0 0 0 0
0 0 0 0 0 0 0 0 0 0 0 0 0 0 0 0 0 0 0 0 0 0 0 0 0 0 0 0 0 0 0 0 0 0 0 0 0 0 0 0 0 0 0
0 0 0 0 0 0 0 0 0 0 0 0 0 0 0 0 0 0 0 0 0 0 0 0 0 0 0 0 0 0 0 0 0 0 0 0 0 0 0 0 0 0 0
0 0 0 0 0 0 0 0 0 0 0 0 0 0 0 0 0 0 0 0 0 0 0 0 0 0 0 0 0 0 0 0 0 0 0 0 0 0 0 0 0 0 0
0 0 0 0 0 0 0 0 0 0 0 0 0 0 0 0 0 0 0 0 0 0 0 0 0 0 0 0 0 0 0 0 0 0 0 0 0 0 0 0 0 0 0
0 0 0 0 0 0 0 0 0 0 0 0 0 0 0 0 0 0 0 0 0 0 0 0 0 0 0 0 0 0 0 0 0 0 0 0 0 0 0 0 0 0 0
0 0 0 0 0 0 0 0 0 0 0 0 0 0 0 0 0 0 0 0 0 0 0 0 0 0 0 0 0 0 0 0 0 0 0 0 0 0 0 0 0 0 0
0 0 0 0 0 0 0 0 0 0 0 0 0 0 0 0 0 0 0 0 0 0 0 0 0 0 0 0 0 0 0 0 0 0 0 0 0 0 0 0 0 0 0
0 0 0 0 0 0 0 0 0 0 0 0 0 0 0 0 0 0 0 0 0 0 0 0 0 0 0 0 0 0 0 0 0 0 0 0 0 0 0 0 0 0 0
0 0 0 0 0 0 0 0 0 0 0 0 0 0 0 0 0 0 0 0 0 0 0 0 0 0 0 0 0 0 0 0 0 0 0 0 0 0 0 0 0 0 0
0 0 0 0 0 0 0 0 0 0 0 0 0 0 0 0 0 0 0 0 0 0 0 0 0 0 0 0 0 0 0 0 0 0 0 0 0 0 0 0 0 0 0
0 0 0 0 0 0 0 0 0 0 0 0 0 0 0 0 0 0 0 0 0 0 0 0 0 0 0 0 0 0 0 0 0 0 0 0 0 0 0 0 0 0 0
0 0 0 0 0 0 0 0 0 0 0 0 0 0 0 0 0 0 0 0 0 0 0 0 0 0 0 0 0 0 0 0 0 0 0 0 0 0 0 0 0 0 0
0 0 0 0 0 0 0 0 0 0 0 0 0 0 0 0 0 0 0 0 0 0 0 0 0 0 0 0 0 0 0 0 0 0 0 0 0 0 0 0 0 0 0
0 0 0 0 0 0 0 0 0 0 0 0 0 0 0 0 0 0 0 0 0 0 0 0 0 0 0 0 0 0 0 0 0 0 0 0 0 0 0 0 0 0 0
0 0 0 0 0 0 0 0 0 0 0 0 0 0 0 0 0 0 0 0 0 0 0 0 0 0 0 0 0 0 0 0 0 0 0 0 0 0 0 0 0 0 0
0 0 0 0 0 0 0 0 0 0 0 0 0 0 0 0 0 0 0 0 0 0 0 0 0 0 0 0 0 0 0 0 0 0 0 0 0 0 0 0 0 0 0
0 0 0 0 0 0 0 0 0 0 0 0 0 0 0 0 0 0 0 0 0 0 0 0 0 0 0 0 0 0 0 0 0 0 0 0 0 0 0 0 0 0 0
0 0 0 0 0 0 0 0 0 0 0 0 0 0 0 0 0 0 0 0 0 0 0 0 0 0 0 0 0 0 0 0 0 0 0 0 0 0 0 0 0 0 0
0 0 0 0 0 0 0 0 0 0 0 0 0 0 0 0 0 0 0 0 0 0 0 0 0 0 0 0 0 0 0 0 0 0 0 0 0 0 0 0 0 0 0
0 0 0 0 0 0 0 0 0 0 0 0 0 0 0 0 0 0 0 0 0 0 0 0 0 0 0 0 0 0 0 0 0 0 0 0 0 0 0 0 0 0 0
0 0 0 0 0 0 0 0 0 0 0 0 0 0 0 0 0 0 0 0 0 0 0 0 0 0 0 0 0 0 0 0 0 0 0 0 0 0 0 0 0 0 0
0 0 0 0 0 0 0 0 0 0 0 0 0 0 0 0 0 0 0 0 0 0 0 0 0 0 0 0 0 0 0 0 0 0 0 0 0 0 0 0 0 0 0
0 0 0 0 0 0 0 0 0 0 0 0 0 0 0 0 0 0 0 0 0 0 0 0 0 0 0 0 0 0 0 0 0 0 0 0 0 0 0 0 0 0 0
0 0 0 0 0 0 0 0 0 0 0 0 0 0 0 0 0 0 0 0 0 0 0 0 0 0 0 0 0 0 0 0 0 0 0 0 0 0 0 0 0 0 0
0 0 0 0 0 0 0 0 0 0 0 0 0 0 0 0 0 0 0 0 0 0 0 0 0 0 0 0 0 0 0 0 0 0 0 0 0 0 0 0 0 0 0
Wind_Speed
4 4 4 4 4 3 3 2 3 4 4 4 4 4 4 4 5 6 5 12 12 11 11 11 11 12 12 12 12 12 12 12 13 13 13 13 13 13 13 13 12 12 12
4 5 5 4 3 3 3 3 4 4 3 3 2 3 3 3 4 7 5 7 11 10 10 10 11 11 12 12 12 12 12 13 13 13 13 14 14 13 13 13 13 13 13
6 6 5 4 3 4 4 4 4 3 3 2 1 2 2 2 2 4 6 5 5 7 7 7 9 10 11 12 13 13 13 13 13 14 14 14 15 15 15 15 14 14 14
8 7 6 4 4 4 4 3 3 2 3 3 3 2 1 2 0 3 4 5 4 3 3 3 6 8 10 12 13 13 13 13 14 14 15 15 15 16 16 16 16 16 16
9 7 6 5 5 4 4 4 4 3 3 3 3 1 1 1 1 2 2 4 4 3 1 1 4 7 9 12 13 13 13 13 14 14 15 16 16 16 17 18 18 18 18
9 8 6 7 6 5 4 4 4 3 3 2 3 1 1 1 1 2 1 2 3 4 3 1 1 3 8 13 14 13 13 14 14 15 16 16 17 18 18 19 19 19 20
10 9 7 7 6 5 5 6 4 4 3 3 2 2 1 1 1 2 2 1 1 2 2 1 0 1 3 10 13 14 13 14 15 16 17 17 18 19 20 21 21 21 22
10 8 8 7 6 6 6 6 4 3 2 3 2 2 3 2 2 1 1 2 1 1 0 1 1 2 2 2 7 13 13 15 17 17 18 20 21 22 22 23 23 23 23
9 9 9 8 7 6 5 5 4 4 3 2 3 3 2 1 3 3 2 1 0 1 2 2 3 3 3 3 4 6 11 15 16 18 20 22 23 24 24 24 24 24 25
8 9 10 9 8 6 7 5 5 3 4 2 1 2 2 2 1 4 4 3 2 2 3 3 3 3 4 3 5 9 13 15 18 20 23 25 25 25 25 25 25 25 26
8 9 10 9 9 7 7 6 5 4 3 3 2 1 0 0 2 2 4 4 4 3 4 4 4 5 4 4 3 7 14 17 20 23 25 26 26 26 26 26 26 26 27
7 9 10 9 9 7 7 6 5 5 4 3 2 1 1 0 1 1 3 4 4 4 5 5 6 5 4 4 6 11 15 18 21 24 26 27 27 27 27 27 27 27 27
8 9 10 9 8 7 7 6 5 5 4 3 2 1 1 0 0 1 2 4 5 4 4 4 4 4 4 2 2 12 15 20 23 26 27 28 28 27 28 28 28 28 28
8 10 10 10 10 8 7 6 5 4 4 3 2 1 0 1 1 1 1 2 5 4 3 5 5 5 3 3 8 17 9 21 25 27 28 28 28 28 28 28 28 28 28
11 12 12 11 9 8 7 6 4 4 4 2 2 1 1 1 1 1 1 1 3 5 5 4 4 5 6 5 11 8 7 18 26 27 28 28 28 28 29 29 29 29 29
13 13 13 11 9 7 6 5 5 4 3 1 2 1 1 1 1 1 2 2 3 5 8 4 5 6 7 9 16 10 9 25 26 28 28 28 29 29 29 29 30 30 29
14 13 13 11 9 7 6 5 4 4 2 1 1 2 2 2 2 2 2 3 4 4 10 8 5 5 7 9 10 8 10 9 11 25 28 29 29 29 29 30 30 30 30
12 12 12 10 8 7 5 5 4 3 1 1 1 2 2 2 2 2 3 4 4 5 8 12 6 5 8 9 9 10 11 12 9 21 27 27 28 29 29 30 30 30 30
13 12 11 9 8 7 5 4 3 1 1 1 2 2 3 3 3 3 4 4 4 6 6 9 10 6 7 8 10 11 12 9 12 16 21 24 27 29 30 31 30 30 30
12 11 10 9 8 6 5 3 2 1 2 3 3 3 3 4 4 4 4 5 5 6 6 8 9 9 8 8 8 9 10 6 9 11 16 20 24 28 29 30 31 30 30
12 11 10 8 7 5 4 4 3 3 4 4 4 4 4 6 9 8 7 5 5 5 6 8 10 10 9 8 8 7 11 9 8 10 10 10 11 10 14 21 26 28 29
11 10 8 7 5 4 6 4 3 3 4 5 5 4 5 6 10 14 16 16 14 10 8 9 10 12 12 10 8 8 10 13 14 5 7 11 10 12 11 9 21 29 29
9 8 6 5 5 6 5 2 4 3 4 5 6 5 5 6 10 5 10 15 14 19 21 15 14 13 13 11 9 10 11 14 16 10 10 15 11 13 11 14 27 30 31
7 6 5 4 3 5 5 2 5 4 5 6 6 5 5 5 6 9 7 6 7 10 15 12 11 12 11 10 11 14 15 14 12 9 8 14 13 13 13 10 22 29 31
6 5 4 3 2 3 4 2 6 3 4 6 5 5 7 6 13 18 9 8 10 10 16 21 22 22 26 27 22 12 9 11 14 12 6 9 12 13 13 12 15 24 25
5 4 3 2 1 1 1 2 6 2 4 4 5 6 12 14 17 18 10 9 12 11 10 11 14 17 15 16 22 12 8 11 13 11 4 4 7 10 11 6 6 7 13
Wind_Direction
169 151 126 127 124 126 137 108 76 74 61 46 35 31 18 28 77 100 84 82 77 70 62 53 43 33 24 16 9 4 359 355 352 349 346 344 342 340 337 334 333 332 331
157 126 114 114 114 114 102 95 83 75 69 60 37 31 22 24 67 110 117 94 91 81 65 51 36 24 14 6 359 354 350 346 343 340 337 334 332 329 326 323 321 320 319
136 124 121 124 126 116 98 79 79 71 70 33 27 78 59 41 35 109 128 128 114 99 80 51 27 13 5 357 351 347 344 340 338 335 332 329 327 323 318 315 313 311 310
135 127 130 133 127 108 96 88 75 74 64 34 4 15 20 110 359 93 113 123 122 113 96 53 18 2 354 348 344 341 340 339 336 332 329 326 323 320 316 312 309 307 305
138 133 133 134 124 110 104 97 63 63 59 21 320 294 18 62 162 113 122 127 126 126 134 282 352 346 342 339 335 334 336 336 332 330 327 324 321 318 315 311 307 303 300
138 130 134 135 122 114 114 110 107 75 55 355 315 321 150 98 115 151 162 135 159 179 189 238 348 345 344 333 330 329 330 330 330 328 325 322 320 317 313 309 305 301 297
134 136 138 132 129 130 135 130 121 100 47 356 2 349 332 192 160 168 160 145 256 207 179 210 78 35 335 327 325 321 324 327 327 325 323 320 318 315 311 307 303 299 295
136 140 137 134 129 124 114 110 114 114 74 31 45 30 11 344 315 235 170 196 237 22 14 1 3 322 298 301 302 312 320 322 321 320 319 318 316 312 308 303 301 298 295
134 136 133 127 125 122 123 121 123 127 135 73 55 87 99 310 321 318 277 211 194 283 281 283 278 270 277 288 288 300 308 314 313 314 315 314 312 307 303 301 299 297 296
135 135 131 129 125 120 124 123 114 114 122 132 105 69 112 124 90 317 319 324 338 316 300 293 291 278 270 269 274 290 303 306 309 311 313 312 307 304 302 301 300 299 297
138 135 131 129 127 126 125 121 120 110 103 116 119 106 80 108 191 209 279 299 318 313 318 307 289 275 263 256 255 275 295 303 306 308 309 307 305 304 303 303 303 302 300
138 133 130 128 125 124 125 125 122 115 102 95 86 85 99 150 301 263 277 298 294 288 299 286 279 268 254 248 262 287 299 302 303 304 303 302 302 303 305 305 303 300 298
148 142 136 130 126 126 126 125 124 126 118 117 115 80 46 350 292 276 279 289 294 297 285 277 290 302 294 300 301 307 303 304 304 303 301 301 302 304 303 301 299 297 295
146 139 133 128 127 129 131 127 125 131 124 135 151 130 91 295 298 278 271 302 305 290 283 295 311 303 330 330 308 315 310 307 305 301 300 302 302 302 300 299 297 296 294
141 135 131 129 130 132 133 136 136 136 138 154 155 134 213 261 275 280 282 261 265 289 292 278 292 332 332 316 309 308 298 304 303 302 303 302 301 300 299 298 297 295 293
139 136 132 130 129 128 128 124 121 120 124 147 143 141 266 270 290 288 277 271 258 271 284 282 300 301 307 311 307 308 301 303 303 301 299 298 299 298 297 297 297 295 294
137 135 132 130 128 129 127 125 130 133 148 218 225 224 251 266 272 278 288 284 274 269 281 286 279 291 298 296 296 290 290 286 288 295 297 297 297 297 299 298 296 295 293
129 128 127 124 124 121 120 126 131 136 185 244 277 287 282 285 287 284 279 273 273 273 282 294 295 293 291 290 291 289 296 294 288 295 297 299 300 301 300 297 295 294 293
122 119 115 115 112 109 105 98 90 72 334 290 277 269 270 277 280 277 280 282 282 289 286 295 299 293 291 291 292 291 288 287 292 296 301 302 299 298 296 297 298 298 297
116 111 108 106 105 105 102 88 59 359 322 308 297 281 269 259 258 262 275 271 275 279 283 288 293 293 289 284 285 293 295 284 289 298 296 294 293 296 296 297 297 296 295
106 104 104 103 103 110 97 69 30 358 344 326 311 295 284 287 287 285 282 267 277 279 282 287 290 292 292 294 294 293 297 298 288 285 284 284 288 286 288 290 293 291 290
101 102 105 109 112 108 98 69 16 350 333 318 306 300 301 298 295 301 305 305 301 298 296 289 291 291 294 292 291 292 296 299 296 267 280 291 288 285 283 278 286 291 293
106 106 114 122 123 125 118 56 350 340 312 295 291 291 295 296 307 301 295 297 298 299 297 294 292 291 291 289 287 286 284 284 286 289 292 291 287 284 282 287 293 294 295
114 118 119 116 117 143 133 48 345 341 308 296 292 288 287 287 290 296 281 285 279 289 290 290 281 281 285 284 276 283 286 286 282 280 272 283 288 287 290 285 290 290 291
114 118 122 120 108 127 139 34 352 333 307 305 308 317 316 296 300 307 311 300 293 289 296 296 295 297 299 299 299 298 293 294 293 289 272 273 286 293 290 284 281 285 289
114 115 113 111 97 98 131 352 341 323 310 310 312 310 311 309 310 314 311 299 298 296 291 293 295 295 292 290 297 295 291 292 292 294 272 269 290 305 297 263 260 280 287